TITAN 3C TRANSTAGE DEB, 4907

Orbit data source: Space-Track

TITAN 3C TRANSTAGE DEB, 4907 is space debris in LEO originally from a launch on Fri, 15 Oct 1965 UTC launched from the Air Force Eastern Test Range (AFETR). Debris objects in space refer to the collection of defunct objects orbiting the Earth. Examples of debris include non-operational satellites, rocket bodies, and fragments generated from explosions, collisions, or faulty payload assembly.

Loading next visibility...
Identifier
4907, 1965-082SV
Orbit
LEO
Country
Flag of USUS
Related business
Manufacturer
Unknown
Mission
Spacecraft
Bus & Motor
Unknown
Mass
Unknown
Launch date (UTC)
1965-10-15 (60 years ago)
Launch vehicle
Unknown
Launch site
Air Force Eastern Test Range (AFETR)
Object type
Payload
Rocket body
Debris
Shape & HBR
Unknown shape, 0.1 m
Radar Cross Section
Small (<0.1 m²)

Expand to show TLE details & history
Last TLE update: 17 hours ago

TLE from 17 hours ago
0 TITAN 3C TRANSTAGE DEB
1 04907U 65082SV  25349.44572674  .00000587  00000-0  11174-3 0  9990
2 04907  32.4862  19.4811 0045934 100.6614 259.9214 14.60313035191340
Epoch: 2025-12-15T10:41Z
TLE epoch observation values (Epoch: 2025-12-15T10:41:50.790Z)
Latitude
Longitude
134.6753°
Altitude
696.676 km
Speed
7.507 km/s
True Right ascension
01h 17m 55s
True Declination
0° 00' 00"
Sunlit
Object was in daylight at epoch
Visualization orbit readout
Latitude
Unknown
Longitude
Unknown
Altitude
Unknown
Speed
Unknown
Apparent Right ascension
Unknown
Apparent Declination
Unknown
Sunlit
N/A
Visualization observer readout
Local Sidereal Time
02:12:33
Azimuth
Unknown
Elevation
Unknown
Doppler factor
Unknown
Orbital elements
Apogee altitude
728.196 km
Perigee altitude
663.21 km
Semi-major axis
7,073.84 km
Eccentricity
0.00459
Inclination
32.4862°
RAAN
19.4811°
Arg. of periapsis
100.6614°
True anomaly
259.40368°
Mean anomaly
259.9214°
Eccentric anomaly
259.66249°
Mean motion
3.64805 °/min
Orbital period
98.68 mins
BSTAR
0.00011174

Documentation

Showing up to 5 results
|